Simultaneous Nadir Overpasses (SNOs) Predictions

Prediction of SNOs between METOP-B and TERRA Satellite Orbit:

Table of predicted SNOs for the next 14.0 days since TLE Epoch: 11/8/2025
Index Date (METOP-B) Time (METOP-B) Lat,Lon (METOP-B) SZA (METOP-B ) Date (TERRA) Time (TERRA) Lat,Lon (TERRA) SZA (TERRA ) Distance(km) Time Diff (sec)
1 11/09/2025 18:20:41 -71.23, 66.49 91.24 11/09/2025 18:20:51 -71.23, 66.49 91.25 0.12 10
2 11/09/2025 19:10:46 73.04,-122.71 90.34 11/09/2025 19:09:36 73.04,-122.72 90.35 0.45 70
3 11/12/2025 07:09:54 -71.12,-126.00 90.63 11/12/2025 07:10:08 -71.11,-126.07 90.65 2.76 14
4 11/12/2025 08:00:08 72.48, 43.83 90.54 11/12/2025 07:59:01 72.49, 43.89 90.57 2.31 67
5 11/14/2025 19:59:15 -70.64, 40.89 90.38 11/14/2025 19:59:32 -70.63, 40.84 90.39 2.08 17
6 11/14/2025 20:49:26 72.16,-149.11 90.94 11/14/2025 20:48:22 72.17,-149.04 90.96 2.56 64
7 11/17/2025 08:48:43 -69.76,-152.76 90.47 11/17/2025 08:49:02 -69.77,-152.72 90.47 1.85 19
8 11/17/2025 09:38:40 72.03, 18.35 91.46 11/17/2025 09:37:39 72.03, 18.35 91.48 0.39 61
9 11/19/2025 21:37:54 -69.78, 14.96 89.85 11/19/2025 21:38:16 -69.77, 14.92 89.87 2.18 22



Historial Predications of SNOs between METOP-B and TERRA
